{"data":{"norad_id":61790,"intl_designator":"2024-199BH","name":"SITRO-AIS 18","alt_names":[],"object_type":"PAYLOAD","status":"ACTIVE","operator":null,"country":"CIS","launch_date":"2024-11-04","launch_site_code":"VOSTO","launch_vehicle":null,"mission":null,"orbit_class":"UNKNOWN","rcs_meters":null,"size_class":null,"mass_kg":null,"dimensions":null,"purposes":[],"wikipedia_slug":null,"has_3d_model":false,"image_url":null,"decayed_at":null,"tle_current":{"epoch":"2026-09-22T19:47:02.626080Z","epoch_age_seconds":101346,"freshness":"FRESH","line1":"1 61790U 24199BH  26265.82433595  .00002361  00000+0  20274-3 0  9997","line2":"2 61790  97.3186  99.3574 0007986  99.1594 261.0534 14.98312065146655","mean_motion":14.98312065,"eccentricity":0.0007986,"inclination_deg":97.3186,"raan_deg":99.3574,"arg_perigee_deg":99.1594,"mean_anomaly_deg":261.0534,"bstar":0.00020274,"rev_number":14665,"period_min":96.108149539595,"perigee_km":566.56088567019,"apogee_km":577.66182234121,"semimajor_km":6950.2483540057,"source":"CELESTRAK","updated_at":"2026-09-23T09:00:21.041952Z"}}}